User: anonymous   Login
Location: Unspecified
(0.0000°N, 0.0000°E)
Time: 02:44:59
(UTC+00:00)
Language:

CUTE 1.7 + AOD 2 - Orbit

View from above orbital plane
View from above orbital plane
View from above satellite
View from above satellite

Ground track
Ground track

The orbit data is extracted from the following two-line orbital elements,

1 32785U 08021C   24206.51478776  .00007862  00000-0  68249-3 0  9990
2 32785  97.7564 171.5458 0010800 189.8409 170.2603 14.97265261881137
Epoch (UTC): 24 July 2024 12:21:17
Eccentricity: 0.0010800
inclination: 97.7564°
perigee height: 568 km
apogee height: 583 km
right ascension of ascending node: 171.5458°
argument of perigee: 189.8409°
revolutions per day: 14.97265261
mean anomaly at epoch: 170.2603°
orbit number at epoch: 88113

The dashed part of the orbit path shows where the satellite is in the earth's shadow,  

DLR